Location: Diebersbach
(48.5163°N, 8.0558°E)
Time: 14:46:59
(UTC+00:00)

EXPRESS MD2 - Pass Details

Date: 20 June 2021
Orbit: 262 x 3945 km, 49.9° (Epoch: 29 July)

Event Time Altitude Azimuth Distance (km) Brightness Sun altitude
Exits shadow 01:39:29 - 244° (WSW) 4,788 7.6 -12.4°
Reaches altitude 10° 01:41:25 10° 244° (WSW) 4,097 7.2 -12.2°
Maximum altitude 01:50:53 77° 160° (SSE) 971 4.4 -11.4°
Drops below altitude 10° 01:55:18 10° 75° (ENE) 1,990 6.9 -11.0°
Sets 01:56:57 0° 74° (ENE) 2,650 7.7 -10.8°
